Regional Weather Roundup
Issued by NWS Huntsville, AL

Home | Current Version | Previous Version | Text Only | Print | Product List | Glossary On
Versions: 1 2 3 4 5 6 7 8 9 10 11 12 13 14 15 16 17 18 19 20 21 22 23 24 25 26 27 28 29 30 31 32 33 34 35 36 37 38 39 40 41 42 43 44 45 46 47 48 49 50
000
ASUS44 KHUN 200810
RWRHUN

WEATHER ROUNDUP FOR THE TENNESSEE VALLEY
NATIONAL WEATHER SERVICE HUNTSVILLE AL
300 AM CDT MON OCT 20 2014

ALZ001>004-200900-
NORTHWEST ALABAMA

CITY           SKY/WX    TMP DP  RH WIND       PRES   REMARKS
COURTLAND HCN    N/A     45 N/A N/A CALM        N/A
RUSSELLVILLE     N/A     39 N/A N/A MISG        N/A
SHOALS AIRPORT CLEAR     45  43  93 CALM      30.10S FOG
$$

ALZ005>007-016-200900-
NORTH CENTRAL ALABAMA

CITY           SKY/WX    TMP DP  RH WIND       PRES   REMARKS
CULLMAN AG STN   N/A     43 N/A N/A CALM        N/A
DECATUR AP     CLEAR     43  42  97 CALM      30.08S
HUNTSVILLE AP  CLEAR     48  45  89 CALM      30.08S
MERIDIANVILLE  PTCLDY    43  37  81 CALM      30.08S
VINEMONT AP    FAIR      43  43  98 CALM      30.10S
$$

ALZ008>010-200900-
NORTHEAST ALABAMA

CITY           SKY/WX    TMP DP  RH WIND       PRES   REMARKS
ALBERTVILLE    CLEAR     48  48 100 E5        30.08S
FORT PAYNE     PTCLDY    41  37  87 CALM      30.09S
SCOTTSBORO AP  PTCLDY    45  45 100 CALM      30.10S
SCOTTSBORO HCN   N/A     45 N/A N/A MISG        N/A
VALLEY HEAD      N/A     41 N/A N/A MISG        N/A
$$

TNZ076-096-097-200900-
SOUTHEASTERN MIDDLE TENNESSEE

CITY           SKY/WX    TMP DP  RH WIND       PRES   REMARKS
TULLAHOMA      CLEAR     43  39  87 CALM      30.08R
WINCHESTER     CLEAR     45  45 100 CALM      30.07S
$$

...SURROUNDING SITES...

CITY           SKY/WX    TMP DP  RH WIND       PRES   REMARKS
ATLANTA        CLEAR     51  46  83 CALM      30.10S
ANNISTON       CLEAR     49  47  93 CALM      30.10S
BIRMINGHAM     CLEAR     48  46  93 CALM      30.10S
CHATTANOOGA    MOCLDY    46  44  93 CALM      30.11R
CORINTH          N/A     43  41  93 CALM        N/A
DALTON         FOG       43  43 100 CALM      30.10S VSB 3/4
GADSDEN        CLEAR     43  39  87 CALM      30.10S
GOLDEN TRNGL   CLEAR     46  43  87 CALM      30.07S
HALEYVILLE     FAIR      42  42 100 CALM      30.11R
JACKSON TN     MOCLDY    44  41  89 CALM      30.08S
MEMPHIS        CLEAR     50  47  89 CALM      30.07F
NASHVILLE      CLOUDY    47  45  93 S3        30.07F
OXFORD MS      FAIR      43  41  93 CALM      30.10F
ROME           CLEAR     44  43  96 CALM      30.10S
SAVANNAH       CLEAR     41  41 100 CALM      30.08S
TUPELO         CLEAR     46  44  93 CALM      30.08S
TUSCALOOSA     CLEAR     47  45  93 CALM      30.08F
$$

...GULF COAST WEATHER...

CITY           SKY/WX    TMP DP  RH WIND       PRES   REMARKS
GULFPORT       CLEAR     53  51  93 CALM      30.04F
PASCAGOULA     CLEAR     47  46  97 CALM      30.05S
MOBILE         CLEAR     49  48  97 CALM      30.06S
GULF SHORES    FOG       50  50  99 CALM      30.05S VSB 1
PENSACOLA      CLEAR     50  50 100 NW3       30.04F
DESTIN         CLEAR     61  55  81 CALM      30.05S
PANAMA CITY    CLEAR     59  53  81 NE3       30.05F
APPALACHICOLA  PTCLDY    61  56  83 NE7       30.03F
$$



USA.gov is the U.S. government's official web portal to all federal, state and local government web resources and services.